星链-35154(STARLINK-35154)

导读

STARLINK-35154是美国于2025年9月13日发射的Starlink卫星互联网项目卫星。Starlink项目旨在构建全球卫星互联网星座,为全球偏远、网络基础设施薄弱地区提供高速低延迟互联网接入服务,该卫星入轨后将参与组网运行,助力星座覆盖能力与服务质量进一步提升。

Basic Information
目录编号:
65612
目录名称:
STARLINK-35154
国际标识:
2025-207W
轨道中心:
EARTH
卫星名称:
星链-35154
卫星全名:
星链-35154(STARLINK-35154)
卫星状态:
在轨 (已飞行273 天)
发射日期:
2025-09-13 UTC
国别 :
美国 (US)
星等 :
--
Orbit Information
数据来源 国际轨道数据 AOE轨道数据
星历时间 2026-06-13T12:17:49+0800
11小时前
查看轨道信息
2026-06-09T00:00:00+0800
4天前
查看轨道信息
半长轴 6927.619km 6927.625km
偏心率 0.0002458 0.0001893
轨道倾角 97.364° 97.392°
近地点辐角 107.191° 109.767°
升交点赤经 231.995° 227.686°
平近点角 252.959° 287.194°
近地点 547.779km 548.176km
远地点 551.185km 550.8km
周期 95.639分钟 95.639分钟
每日圈数 15.056597 15.056576
Detailed Information
固有亮度:
5
最大亮度:
2.5
卫星平台:
Starlink V1.0
覆盖范围:
全球
运营商:
太空探索技术公司
运营商所在国:
美国
制造商(研发单位):
太空探索技术公司
制造商所在国:
美国
使用方式:
暂无
Satellite Introduction
Starlink 计划是 SpaceX 推出的全球卫星互联网项目,通过发射低轨道卫星,为全球尤其是偏远地区提供高速、低延迟的互联网服务。自 2019 年起,Starlink 已部署数千颗卫星,旨在缩小全球数字鸿沟,推动互联网普及。该项目还为军事、航空等行业提供通信支持,带来广泛经济效益。
2D Orbit Map
3D Orbit Map
Orbit Altitude Analysis Chart
Orbit Inclination Analysis Chart
Orbit Comprehensive Analysis Chart
View Comprehensive Chart